Time,TemperatureF,DewpointF,PressureIn,WindDirection,WindDirectionDegrees,WindSpeedMPH,WindSpeedGustMPH,Humidity,HourlyPrecipIn,Conditions,Clouds,dailyrainin,SoftwareType,DateUTC
2013-08-07 00:01:00,62.0,61.0,30.09,East,99,0.0,4.0,96,0.00,,,0.00,,2013-08-07 04:01:00,
2013-08-07 00:11:00,62.0,61.0,30.09,East,99,0.0,4.0,96,0.00,,,0.00,,2013-08-07 04:11:00,
2013-08-07 00:21:00,62.0,61.0,30.09,East,98,3.0,3.0,96,0.00,,,0.00,,2013-08-07 04:21:00,
2013-08-07 00:33:00,62.0,61.0,30.09,East,98,3.0,3.0,96,0.00,,,0.00,,2013-08-07 04:33:00,
2013-08-07 00:43:00,62.0,61.0,30.08,East,90,0.0,6.0,96,0.00,,,0.00,,2013-08-07 04:43:00,
2013-08-07 00:52:00,62.0,61.0,30.08,SE,134,3.0,5.0,96,0.00,,,0.00,,2013-08-07 04:52:00,
2013-08-07 01:02:00,63.0,62.0,30.08,ESE,113,3.0,4.0,97,0.00,,,0.00,,2013-08-07 05:02:00,
2013-08-07 01:11:00,63.0,62.0,30.08,ESE,113,3.0,4.0,97,0.00,,,0.00,,2013-08-07 05:11:00,
2013-08-07 01:22:00,63.0,62.0,30.07,SE,127,0.0,6.0,97,0.00,,,0.00,,2013-08-07 05:22:00,
2013-08-07 01:32:00,63.0,62.0,30.08,ESE,115,0.0,5.0,97,0.00,,,0.00,,2013-08-07 05:32:00,
2013-08-07 01:43:00,63.0,62.0,30.07,East,88,0.0,4.0,97,0.00,,,0.00,,2013-08-07 05:43:00,
2013-08-07 01:52:00,63.0,62.0,30.07,East,101,0.0,6.0,97,0.00,,,0.00,,2013-08-07 05:52:00,
2013-08-07 02:02:00,63.0,62.0,30.07,East,101,0.0,6.0,97,0.00,,,0.00,,2013-08-07 06:02:00,
2013-08-07 02:11:00,63.0,62.0,30.08,SE,142,0.0,7.0,98,0.00,,,0.00,,2013-08-07 06:11:00,
2013-08-07 02:22:00,63.0,62.0,30.08,SE,142,0.0,7.0,98,0.00,,,0.00,,2013-08-07 06:22:00,
2013-08-07 02:32:00,63.0,62.0,30.07,SE,137,0.0,7.0,98,0.00,,,0.00,,2013-08-07 06:32:00,
2013-08-07 02:43:00,63.0,62.0,30.08,SE,138,5.0,6.0,98,0.00,,,0.00,,2013-08-07 06:43:00,
2013-08-07 02:52:00,63.0,62.0,30.08,SE,138,5.0,6.0,98,0.00,,,0.00,,2013-08-07 06:52:00,
2013-08-07 03:01:00,63.0,62.0,30.07,SE,132,2.0,5.0,98,0.00,,,0.00,,2013-08-07 07:01:00,
2013-08-07 03:12:00,63.0,62.0,30.07,SE,133,3.0,5.0,98,0.00,,,0.00,,2013-08-07 07:12:00,
2013-08-07 03:22:00,63.0,62.0,30.07,SE,133,3.0,5.0,98,0.00,,,0.00,,2013-08-07 07:22:00,
2013-08-07 03:43:00,63.0,63.0,30.07,SE,131,0.0,4.0,99,0.00,,,0.00,,2013-08-07 07:43:00,
2013-08-07 03:52:00,63.0,62.0,30.07,SE,128,0.0,5.0,98,0.00,,,0.00,,2013-08-07 07:52:00,
2013-08-07 04:02:00,63.0,62.0,30.07,SE,128,0.0,5.0,98,0.00,,,0.00,,2013-08-07 08:02:00,
2013-08-07 04:32:00,63.0,63.0,30.08,SE,135,0.0,5.0,99,0.00,,,0.00,,2013-08-07 08:32:00,
2013-08-07 04:44:00,63.0,63.0,30.08,SE,135,0.0,5.0,99,0.00,,,0.00,,2013-08-07 08:44:00,
2013-08-07 04:52:00,63.0,63.0,30.08,SE,135,0.0,5.0,99,0.00,,,0.00,,2013-08-07 08:52:00,
2013-08-07 05:02:00,63.0,63.0,30.07,SE,134,2.0,5.0,99,0.00,,,0.00,,2013-08-07 09:02:00,
2013-08-07 05:12:00,63.0,63.0,30.07,SE,134,2.0,5.0,99,0.00,,,0.00,,2013-08-07 09:12:00,
2013-08-07 05:22:00,63.0,63.0,30.07,SE,134,2.0,5.0,99,0.00,,,0.00,,2013-08-07 09:22:00,
2013-08-07 05:43:00,63.0,63.0,30.07,SE,134,0.0,4.0,100,0.00,,,0.00,,2013-08-07 09:43:00,
2013-08-07 05:54:00,63.0,63.0,30.07,SE,134,3.0,3.0,100,0.00,,,0.00,,2013-08-07 09:54:00,
2013-08-07 06:01:00,63.0,63.0,30.07,SE,134,2.0,4.0,100,0.00,,,0.00,,2013-08-07 10:01:00,
2013-08-07 06:11:00,63.0,63.0,30.07,SE,134,2.0,4.0,100,0.00,,,0.00,,2013-08-07 10:11:00,
2013-08-07 06:32:00,62.0,62.0,30.06,ESE,119,3.0,6.0,100,0.00,,,0.00,,2013-08-07 10:32:00,
2013-08-07 06:52:00,63.0,63.0,30.07,East,85,0.0,4.0,100,0.00,,,0.00,,2013-08-07 10:52:00,
2013-08-07 07:01:00,63.0,63.0,30.07,East,85,0.0,4.0,100,0.00,,,0.00,,2013-08-07 11:01:00,
2013-08-07 07:11:00,63.0,63.0,30.07,East,85,0.0,4.0,100,0.00,,,0.00,,2013-08-07 11:11:00,
2013-08-07 07:22:00,63.0,63.0,30.07,East,85,0.0,4.0,100,0.00,,,0.00,,2013-08-07 11:22:00,
2013-08-07 07:32:00,63.0,63.0,30.06,East,86,0.0,0.0,100,0.00,,,0.00,,2013-08-07 11:32:00,
2013-08-07 07:43:00,63.0,63.0,30.06,East,86,0.0,0.0,100,0.00,,,0.00,,2013-08-07 11:43:00,
2013-08-07 07:53:00,63.0,63.0,30.06,East,86,0.0,0.0,100,0.00,,,0.00,,2013-08-07 11:53:00,
2013-08-07 08:02:00,63.0,63.0,30.07,East,86,0.0,4.0,100,0.00,,,0.00,,2013-08-07 12:02:00,
2013-08-07 08:11:00,63.0,63.0,30.06,ESE,117,2.0,5.0,100,0.00,,,0.00,,2013-08-07 12:11:00,
2013-08-07 08:22:00,63.0,63.0,30.06,ESE,117,2.0,5.0,100,0.00,,,0.00,,2013-08-07 12:22:00,
2013-08-07 08:33:00,63.0,63.0,30.06,ESE,117,2.0,5.0,100,0.00,,,0.00,,2013-08-07 12:33:00,
2013-08-07 08:43:00,64.0,64.0,30.07,East,80,3.0,5.0,100,0.00,,,0.00,,2013-08-07 12:43:00,
2013-08-07 08:52:00,64.0,64.0,30.07,East,80,3.0,5.0,100,0.00,,,0.00,,2013-08-07 12:52:00,
2013-08-07 09:02:00,64.0,64.0,30.07,East,80,3.0,5.0,100,0.00,,,0.00,,2013-08-07 13:02:00,
2013-08-07 09:12:00,64.0,64.0,30.06,ENE,71,2.0,8.0,99,0.00,,,0.00,,2013-08-07 13:12:00,
2013-08-07 09:22:00,64.0,64.0,30.06,ENE,71,2.0,8.0,99,0.00,,,0.00,,2013-08-07 13:22:00,
2013-08-07 09:32:00,64.0,64.0,30.06,ENE,71,2.0,8.0,99,0.00,,,0.00,,2013-08-07 13:32:00,
2013-08-07 09:44:00,64.0,64.0,30.06,ENE,71,2.0,8.0,99,0.00,,,0.00,,2013-08-07 13:44:00,
2013-08-07 10:02:00,66.0,65.0,30.07,East,83,5.0,8.0,98,0.00,,,0.00,,2013-08-07 14:02:00,
2013-08-07 10:12:00,66.0,65.0,30.07,East,83,5.0,8.0,98,0.00,,,0.00,,2013-08-07 14:12:00,
2013-08-07 10:22:00,66.0,65.0,30.07,East,83,5.0,8.0,98,0.00,,,0.00,,2013-08-07 14:22:00,
2013-08-07 10:33:00,66.0,65.0,30.07,East,83,5.0,8.0,98,0.00,,,0.00,,2013-08-07 14:33:00,
2013-08-07 10:43:00,69.0,67.0,30.08,SE,128,3.0,10.0,93,0.00,,,0.00,,2013-08-07 14:43:00,
2013-08-07 11:02:00,71.0,68.0,30.08,SE,133,1.0,13.0,90,0.00,,,0.00,,2013-08-07 15:02:00,
2013-08-07 11:13:00,71.0,68.0,30.08,SE,133,1.0,13.0,90,0.00,,,0.00,,2013-08-07 15:13:00,
2013-08-07 11:33:00,72.0,69.0,30.07,SSW,200,0.0,16.0,89,0.00,,,0.00,,2013-08-07 15:33:00,
2013-08-07 11:53:00,74.0,70.0,30.07,ESE,108,0.0,13.0,86,0.00,,,0.00,,2013-08-07 15:53:00,
2013-08-07 12:02:00,73.0,69.0,30.07,SE,133,5.0,11.0,87,0.00,,,0.00,,2013-08-07 16:02:00,
2013-08-07 12:11:00,73.0,69.0,30.07,SE,133,5.0,11.0,87,0.00,,,0.00,,2013-08-07 16:11:00,
2013-08-07 12:22:00,73.0,69.0,30.08,SE,135,3.0,10.0,87,0.00,,,0.00,,2013-08-07 16:22:00,
2013-08-07 12:43:00,74.0,69.0,30.07,SE,133,2.0,8.0,85,0.00,,,0.00,,2013-08-07 16:43:00,
2013-08-07 12:53:00,75.0,70.0,30.06,East,100,4.0,11.0,84,0.00,,,0.00,,2013-08-07 16:53:00,
2013-08-07 13:02:00,76.0,70.0,30.06,South,183,1.0,16.0,83,0.00,,,0.00,,2013-08-07 17:02:00,
2013-08-07 13:11:00,76.0,70.0,30.06,SSW,209,4.0,13.0,82,0.00,,,0.00,,2013-08-07 17:11:00,
2013-08-07 13:23:00,76.0,70.0,30.06,SSW,209,4.0,13.0,82,0.00,,,0.00,,2013-08-07 17:23:00,
2013-08-07 13:33:00,76.0,70.0,30.06,East,90,2.0,9.0,83,0.00,,,0.00,,2013-08-07 17:33:00,
2013-08-07 13:43:00,76.0,71.0,30.06,South,190,0.0,10.0,84,0.00,,,0.00,,2013-08-07 17:43:00,
2013-08-07 13:52:00,76.0,71.0,30.06,South,190,0.0,10.0,84,0.00,,,0.00,,2013-08-07 17:52:00,
2013-08-07 14:02:00,76.0,71.0,30.06,South,190,0.0,10.0,84,0.00,,,0.00,,2013-08-07 18:02:00,
2013-08-07 14:12:00,76.0,71.0,30.06,South,190,0.0,10.0,84,0.00,,,0.00,,2013-08-07 18:12:00,
2013-08-07 14:22:00,76.0,71.0,30.06,South,190,0.0,10.0,84,0.00,,,0.00,,2013-08-07 18:22:00,
2013-08-07 14:32:00,78.0,71.0,30.06,SE,138,0.0,11.0,79,0.00,,,0.00,,2013-08-07 18:32:00,
2013-08-07 14:43:00,79.0,70.0,30.06,SW,235,0.0,11.0,75,0.00,,,0.00,,2013-08-07 18:43:00,
2013-08-07 14:52:00,80.0,71.0,30.06,NW,322,2.0,11.0,73,0.00,,,0.00,,2013-08-07 18:52:00,
2013-08-07 15:01:00,80.0,71.0,30.05,WSW,239,3.0,6.0,74,0.00,,,0.00,,2013-08-07 19:01:00,
2013-08-07 15:11:00,78.0,69.0,30.05,WSW,254,0.0,12.0,75,0.00,,,0.00,,2013-08-07 19:11:00,
2013-08-07 15:22:00,78.0,69.0,30.05,WSW,254,0.0,12.0,75,0.00,,,0.00,,2013-08-07 19:22:00,
2013-08-07 15:32:00,79.0,71.0,30.05,North,351,1.0,7.0,76,0.00,,,0.00,,2013-08-07 19:32:00,
2013-08-07 15:52:00,80.0,72.0,30.05,West,261,8.0,10.0,76,0.00,,,0.00,,2013-08-07 19:52:00,
2013-08-07 16:02:00,80.0,72.0,30.05,West,261,8.0,10.0,76,0.00,,,0.00,,2013-08-07 20:02:00,
2013-08-07 16:22:00,79.0,69.0,30.03,SW,215,1.0,4.0,71,0.00,,,0.00,,2013-08-07 20:22:00,
2013-08-07 16:52:00,79.0,70.0,30.03,WSW,242,0.0,3.0,74,0.00,,,0.00,,2013-08-07 20:52:00,
2013-08-07 17:01:00,79.0,70.0,30.03,WSW,257,0.0,2.0,73,0.00,,,0.00,,2013-08-07 21:01:00,
2013-08-07 17:11:00,79.0,70.0,30.03,WSW,257,0.0,2.0,73,0.00,,,0.00,,2013-08-07 21:11:00,
2013-08-07 17:32:00,79.0,70.0,30.03,South,190,0.0,2.0,74,0.00,,,0.00,,2013-08-07 21:32:00,
2013-08-07 17:43:00,79.0,70.0,30.03,South,190,0.0,2.0,74,0.00,,,0.00,,2013-08-07 21:43:00,
2013-08-07 18:01:00,77.0,71.0,30.03,SE,137,0.0,0.0,81,0.00,,,0.00,,2013-08-07 22:01:00,
2013-08-07 18:12:00,76.0,71.0,30.02,SE,137,0.0,0.0,84,0.00,,,0.00,,2013-08-07 22:12:00,
2013-08-07 18:22:00,76.0,71.0,30.02,SE,137,0.0,0.0,84,0.00,,,0.00,,2013-08-07 22:22:00,
2013-08-07 18:32:00,76.0,72.0,30.01,SE,137,0.0,0.0,86,0.00,,,0.00,,2013-08-07 22:32:00,
2013-08-07 18:52:00,74.0,71.0,30.04,East,90,0.0,2.0,90,0.00,,,0.00,,2013-08-07 22:52:00,
2013-08-07 19:01:00,73.0,71.0,30.05,SW,231,3.0,3.0,94,0.01,,,0.01,,2013-08-07 23:01:00,
2013-08-07 19:22:00,67.0,65.0,30.09,WSW,238,4.0,26.0,93,0.34,,,0.34,,2013-08-07 23:22:00,
2013-08-07 19:32:00,67.0,65.0,30.09,WSW,238,4.0,26.0,93,0.34,,,0.34,,2013-08-07 23:32:00,
2013-08-07 19:43:00,64.0,63.0,30.10,NW,307,1.0,13.0,98,0.65,,,0.65,,2013-08-07 23:43:00,
2013-08-07 19:52:00,64.0,63.0,30.10,NW,307,1.0,13.0,98,0.65,,,0.65,,2013-08-07 23:52:00,
2013-08-07 20:01:00,64.0,64.0,30.09,NW,322,4.0,10.0,99,0.72,,,0.73,,2013-08-08 00:01:00,
2013-08-07 20:22:00,64.0,64.0,30.09,NW,325,0.0,4.0,99,0.43,,,0.77,,2013-08-08 00:22:00,
2013-08-07 20:32:00,64.0,64.0,30.08,NW,325,0.0,2.0,100,0.29,,,0.80,,2013-08-08 00:32:00,
2013-08-07 20:43:00,64.0,64.0,30.06,SE,132,10.0,12.0,100,0.17,,,0.82,,2013-08-08 00:43:00,
2013-08-07 20:52:00,64.0,64.0,30.06,SE,132,10.0,12.0,100,0.17,,,0.82,,2013-08-08 00:52:00,
2013-08-07 21:02:00,64.0,64.0,30.08,SE,136,3.0,11.0,100,0.14,,,0.82,,2013-08-08 01:02:00,
2013-08-07 21:11:00,63.0,63.0,30.09,SE,136,3.0,15.0,100,0.09,,,0.82,,2013-08-08 01:11:00,
2013-08-07 21:22:00,63.0,63.0,30.09,SE,136,3.0,15.0,100,0.09,,,0.82,,2013-08-08 01:22:00,
2013-08-07 21:32:00,63.0,63.0,30.09,ESE,112,0.0,17.0,100,0.03,,,0.83,,2013-08-08 01:32:00,
2013-08-07 21:43:00,63.0,63.0,30.10,ESE,113,4.0,13.0,100,0.02,,,0.83,,2013-08-08 01:43:00,
2013-08-07 21:52:00,62.0,62.0,30.10,East,80,2.0,14.0,100,0.01,,,0.83,,2013-08-08 01:52:00,
2013-08-07 22:02:00,62.0,62.0,30.09,East,85,0.0,1.0,100,0.01,,,0.83,,2013-08-08 02:02:00,
2013-08-07 22:11:00,62.0,62.0,30.09,East,85,0.0,1.0,100,0.01,,,0.83,,2013-08-08 02:11:00,
2013-08-07 22:22:00,62.0,62.0,30.09,East,85,0.0,1.0,100,0.01,,,0.83,,2013-08-08 02:22:00,
2013-08-07 22:32:00,62.0,62.0,30.09,ENE,68,0.0,1.0,100,0.00,,,0.83,,2013-08-08 02:32:00,
2013-08-07 22:43:00,62.0,62.0,30.08,ESE,113,0.0,4.0,100,0.00,,,0.83,,2013-08-08 02:43:00,
2013-08-07 22:52:00,62.0,62.0,30.08,ESE,113,0.0,4.0,100,0.00,,,0.83,,2013-08-08 02:52:00,
2013-08-07 23:02:00,63.0,63.0,30.08,ENE,72,1.0,5.0,100,0.00,,,0.83,,2013-08-08 03:02:00,
2013-08-07 23:12:00,64.0,64.0,30.08,ENE,67,1.0,6.0,99,0.00,,,0.83,,2013-08-08 03:12:00,
2013-08-07 23:22:00,64.0,64.0,30.08,ENE,67,1.0,6.0,99,0.00,,,0.83,,2013-08-08 03:22:00,
2013-08-07 23:32:00,64.0,64.0,30.08,ENE,67,1.0,6.0,99,0.00,,,0.83,,2013-08-08 03:32:00,
2013-08-07 23:43:00,65.0,64.0,30.08,East,84,0.0,8.0,97,0.00,,,0.83,,2013-08-08 03:43:00,
2013-08-07 23:52:00,65.0,64.0,30.08,East,84,0.0,8.0,97,0.00,,,0.83,,2013-08-08 03:52:00,